Flag for U.S.A. Weather past 2 weeks in Los Angeles, California, U.S.A.

Now
62 °F

Sunny.


Feels Like: 62 °F
Forecast: 59 / 79 °F
Wind: 7 mph from West

Location: Los Angeles / USC Campus Downtown

Current Time: May 27, 2015 at 9:07:22 PM

Latest Report: May 27, 2015 at 7:47 PM


Visibility: 10 mi

Pressure: 29.96 "Hg

Humidity: 75%

Dew point: 54 °F

Location of Los AngelesLocation

Historic Weather in Los Angeles — Graph

°F

Los Angeles temperature yesterday

Maximum temperature yesterday: 68 °F (at 1:47 PM)
Minimum temperature yesterday: 59 °F (at 9:47 PM)
Average temperature yesterday: 63 °F

Past Weeks' High & Low Weather Summary

 TemperatureHumidityPressure
High72 °F (May 17, 1:47 PM)93% (May 14, 9:47 PM)30.08 "Hg (May 14, 9:47 PM)
Low53 °F (May 14, 9:47 PM)47% (May 13, 11:47 AM)29.83 "Hg (May 15, 4:47 PM)
Average62 °F69%29.97 "Hg
* Reported May 12 7:47 PM — May 27 7:47 PM, Los Angeles, Weather by CustomWeather, © 2015

Note: Actual official high and low records may vary slightly from our data, if they occured in-between our weather recording intervals... More about our weather records

Advertising

Los Angeles weather history for previous 24 hours

 ConditionsComfort  
Time TempWeatherWind HumidityBarometerVisibility
7:47 PM
Wed, May 27
62 °FSunny.7 mph75%29.96 "Hg10 mi
6:47 PM66 °FSunny.3 mph65%29.95 "Hg10 mi
5:47 PM67 °FSunny.7 mph66%29.94 "Hg10 mi
4:47 PM68 °FSunny.8 mph63%29.94 "Hg10 mi
3:47 PM69 °FSunny.3 mph59%29.95 "Hg10 mi
2:47 PM71 °FSunny.N/A55%29.95 "Hg10 mi
1:47 PM70 °FSunny.3 mph59%29.96 "Hg10 mi
12:47 PM71 °FSunny.3 mph57%29.98 "Hg10 mi
11:47 AM69 °FOvercast.No wind59%29.99 "Hg9 mi
10:47 AM64 °FOvercast.No wind70%29.99 "Hg8 mi
9:47 AM63 °FOvercast.No wind73%29.99 "Hg6 mi
8:47 AM62 °FOvercast.No wind75%30.00 "Hg5 mi
7:47 AM61 °FOvercast.No wind78%29.99 "Hg5 mi
6:47 AM60 °FOvercast.No wind80%29.98 "Hg6 mi
5:47 AM60 °FOvercast.No wind80%29.97 "Hg8 mi
4:47 AM59 °FOvercast.No wind84%29.96 "Hg10 mi
3:47 AM60 °FOvercast.No wind80%29.98 "Hg7 mi
2:47 AM60 °FOvercast.3 mph80%29.98 "Hg7 mi
1:47 AM60 °FOvercast.No wind78%29.98 "Hg10 mi
12:54 AM60 °FOvercast.No wind78%29.99 "Hg10 mi
12:47 AM60 °FOvercast.No wind78%29.99 "Hg10 mi
11:47 PM
Tue, May 26
60 °FOvercast.No wind80%29.99 "Hg10 mi
10:54 PM59 °FPassing clouds.No wind84%30.00 "Hg10 mi
10:47 PM59 °FPassing clouds.No wind81%29.99 "Hg10 mi
9:47 PM59 °FPassing clouds.No wind81%29.98 "Hg10 mi
Weather by CustomWeather, © 2015

See weather overviewHow to use our weather pages